User: anonymous   Login
Location: Brno
(49.2000°N, 16.6330°E)
Time: 23:04:54
(UTC+01:00)
Language:

Cosmos 1459 Rocket - Orbit

View from above orbital plane
View from above orbital plane
View from above satellite
View from above satellite

Ground track
Ground track

The orbit data is extracted from the following two-line orbital elements,

1 14059U 83042B   17327.44014518  .00000035  00000-0  19378-4 0  9993
2 14059  82.9698 303.7189 0042608 177.6662 182.4704 13.78605262737697
Epoch (UTC): 23 November 2017 10:33:48
Eccentricity: 0.0042608
inclination: 82.9698°
perigee height: 937 km
apogee height: 1000 km
right ascension of ascending node: 303.7189°
argument of perigee: 177.6662°
revolutions per day: 13.78605262
mean anomaly at epoch: 182.4704°
orbit number at epoch: 73769

The dashed part of the orbit path shows where the satellite is in the earth's shadow,  

DLR